sat.trackr.live / text

‹ back to catalog

HULIANWANG DIGUI-41

NORAD 65044 · 2025-162B

PAYLOAD ACTIVE UNKNOWN

§ Identity

Operator
Country
PRC
Launch date
2025-07-30
Launch site
WSC
Launch vehicle
Mass (kg)
RCS (m²)

External: N2YO · Heavens-Above · Gunter

§ Orbital elements

Epoch: 2026-05-25T01:51:51.067296Z

Period
108.33 min
Inclination
50.0020°
Eccentricity
0.0000463
Mean motion
13.29323507 rev/d
Perigee alt
1,149.0 km
Apogee alt
1,149.7 km
Semi-major
7,527.5 km
B*
8.6522e-5
RAAN
348.7808°
Arg perigee
36.1694°
Mean anomaly
323.9209°
Rev number
4,028

§ Raw data

HULIANWANG DIGUI-411 65044U 25162B   26145.07767439 -.00000084  00000+0  86522-4 0  99952 65044  50.0020 348.7808 0000463  36.1694 323.9209 13.29323507 40285

JSON: /api/v1/satellites/65044 · /tle

For live sub-satellite position, see the globe view (requires WebGL).

§ Visibility from observer

Set your observer location to see the next 7 days of passes ≥ 10°. The values pass through the URL so the page stays shareable.

No JS? Fill the form by hand. The geolocation button needs JavaScript.